Showing default

HADES-SA (SPINNYONE), 68446

Orbit data source: Space-Track

HADES-SA (SPINNYONE), 68446 is a payload satellite owned by Hydra Space (ES) in SSO that was launched on Mon, 30 Mar 2026 UTC via an FALCON 9 launch vehicle from the Air Force Western Test Range (AFWTR). Payload-class satellites include a variety of spacecraft equipped with specific instruments for various scientific and technological missions. These include communications satellites like Starlink; space stations such as the ISS; scientific satellites like the Hubble; Earth observation satellites from companies like Planet Labs, Umbra, and HawkEye 360; GPS; miniature CubeSats for education and research; and military/defense satellites.

Loading next visibility...
Identifier
68446, 2026-067AG
Orbit
SSO
Country
Flag of ESES / SPN
Related business
Manufacturer
Hydra Space
Mission
Operational Amateur Communications
Bus & Motor
POCKETQUBE 1P, Unknown motor
Mass
0.25 kg wet, 0.25 kg dry
Launch date (UTC)
2026-03-30 (6 months ago)
Launch vehicle
FALCON 9
Launch site
Air Force Western Test Range (AFWTR)
Object type
Payload
Rocket body
Debris
Shape & HBR
Box + 2 Ant, 0.1 m
Radar Cross Section
0.006 m², Medium (>0.1 m² and < 1m²)

Expand to show TLE details & history
Last TLE update: 3 days ago

TLE from 3 days ago
0 HADES-SA (SPINNYONE)
1 68446U 26067AG  26260.81483313  .00014198  00000-0  62496-3 0  9999
2 68446  97.4497 217.9593 0008915 105.6833 254.5387 15.21924785 26001
Epoch: 2026-09-17T19:33Z
TLE epoch observation values (Epoch: 2026-09-17T19:33:21.582Z)
Latitude
-0.00004°
Longitude
-72.12729°
Altitude
504.767 km
Speed
7.611 km/s
True Right ascension
14h 31m 50s
True Declination
0° 00' 00"
Sunlit
Object was in daylight at epoch
Visualization orbit readout
Latitude
Unknown
Longitude
Unknown
Altitude
Unknown
Speed
Unknown
Apparent Right ascension
Unknown
Apparent Declination
Unknown
Sunlit
N/A
Visualization observer readout
Local Sidereal Time
03:11:44
Azimuth
Unknown
Elevation
Unknown
Doppler factor
Unknown
Orbital elements
Apogee altitude
503.13 km
Perigee altitude
490.871 km
Semi-major axis
6,875.137 km
Eccentricity
0.00089
Inclination
97.4497°
RAAN
217.9593°
Arg. of periapsis
105.6833°
True anomaly
254.44027°
Mean anomaly
254.5387°
Eccentric anomaly
254.48948°
Mean motion
3.80734 °/min
Orbital period
94.55 mins
BSTAR
0.00062496
Loading maneuver chart data...
Computing Atmospheric mass density...
Loading historical data...
Loading historical data...
Loading historical data...
Loading historical data...
Loading historical data...
Loading historical data...
Loading historical data...

Documentation

Showing up to 5 results
|